Green Bay, WI

5:03 AM CDT on May 27, 2017 (GMT -0500)
Austin Straubel International

Weather History for KGRB - July, 2013

Change the Weather History Date:

Tuesday, July 30, 2013

  Actual Average Record
Temperature  
Mean Temperature 65 °F 69 °F  
Max Temperature 76 °F 79 °F 99 °F (1916)
Min Temperature 54 °F 58 °F 45 °F (1978)
Degree Days  
Heating Degree Days 0 1  
Month to date heating degree days 22 30  
Since 1 June heating degree days 94 122  
Since 1 July heating degree days 22 30  
Cooling Degree Days 0 5  
Month to date cooling degree days 192 150  
Year to date cooling degree days 335 251  
Since 1 June cooling degree days 297 233  
Growing Degree Days 14 (Base 50)    
Moisture  
Dew Point 59 °F    
Average Humidity 82    
Maximum Humidity 100    
Minimum Humidity 64    
Precipitation  
Precipitation T in 0.10 in 1.75 in (2003)
Month to date precipitation 3.35 3.39  
Year to date precipitation 20.94 16.92  
Snow  
Snow 0.00 in 0.00 in 0.00 in ()
Month to date snowfall 0.0 0.0  
Since 1 June snowfall 0.0 0.0  
Since 1 July snowfall 0.0 0.0  
Snow Depth 0.00 in    
Sea Level Pressure  
Sea Level Pressure 30.15 in    
Wind  
Wind Speed 6 mph (South)    
Max Wind Speed 13 mph    
Max Gust Speed 15 mph    
Visibility 9 miles    
Events      
T = Trace of Precipitation, MM = Missing Value Source: NWS Daily Summary

Daily Weather History Graph

Daily Weather History Graph

Search for Another Location

Airport or City:

Trip Planner

Search our weather history database for the weather conditions in past years. The results will help you decide how hot, cold, wet, or windy it might be!

Date:

Astronomy

Jul. 30, 2013 Rise Set
Actual Time 5:37 AM CDT 8:19 PM CDT
Civil Twilight 5:03 AM CDT 8:53 PM CDT
Nautical Twilight 4:21 AM CDT 9:35 PM CDT
Astronomical Twilight 3:32 AM CDT 10:23 PM CDT
Moon No Moon Rise 2:38 PM CDT (7/30)
Length of Visible Light 15h 49m
Length of Day
14h 42m
Last Quarter, 41% of the Moon is Illuminated
Jul 30
Last Quarter
Aug 6
New
Aug 14
First Quarter
Aug 20
Full
Aug 28
Last Quarter

Hourly Weather History & Observations

Time (CDT) Temp. Dew Point Humidity Pressure Visibility Wind Dir Wind Speed Gust Speed Precip Events Conditions
12:53 AM 57.9 °F 55.9 °F 93% 30.18 in 9.0 mi South 4.6 mph - N/A   Clear
1:53 AM 57.9 °F 55.0 °F 90% 30.17 in 8.0 mi South 5.8 mph - N/A   Clear
2:53 AM 57.9 °F 55.0 °F 90% 30.17 in 9.0 mi South 6.9 mph - N/A   Clear
3:53 AM 55.9 °F 54.0 °F 93% 30.17 in 8.0 mi South 4.6 mph - N/A   Clear
4:53 AM 55.0 °F 54.0 °F 96% 30.18 in 7.0 mi SSW 3.5 mph - N/A   Clear
5:53 AM 54.0 °F 53.1 °F 97% 30.19 in 5.0 mi Calm Calm - N/A   Clear
6:53 AM 57.0 °F 55.0 °F 93% 30.19 in 7.0 mi Calm Calm - N/A   Clear
7:53 AM 59.0 °F 55.9 °F 90% 30.20 in 8.0 mi Calm Calm - N/A   Scattered Clouds
8:53 AM 62.1 °F 57.9 °F 86% 30.20 in 8.0 mi Calm Calm - N/A   Partly Cloudy
9:53 AM 66.0 °F 60.1 °F 81% 30.19 in 6.0 mi South 6.9 mph - N/A   Haze
10:53 AM 70.0 °F 61.0 °F 73% 30.18 in 10.0 mi South 9.2 mph - N/A   Scattered Clouds
11:53 AM 71.1 °F 61.0 °F 70% 30.17 in 10.0 mi South 6.9 mph - 0.00 in   Overcast
12:53 PM 72.0 °F 61.0 °F 68% 30.16 in 10.0 mi South 4.6 mph - N/A   Overcast
1:53 PM 73.0 °F 61.0 °F 66% 30.14 in 10.0 mi South 5.8 mph - N/A   Overcast
2:53 PM 73.9 °F 61.0 °F 64% 30.12 in 10.0 mi Variable 4.6 mph - N/A   Overcast
3:53 PM 75.0 °F 62.1 °F 64% 30.11 in 10.0 mi East 8.1 mph - N/A   Mostly Cloudy
4:53 PM 72.0 °F 63.0 °F 73% 30.11 in 10.0 mi SE 10.4 mph - N/A   Overcast
5:53 PM 73.0 °F 62.1 °F 68% 30.11 in 10.0 mi South 11.5 mph - N/A   Partly Cloudy
6:53 PM 71.1 °F 61.0 °F 70% 30.11 in 10.0 mi SSE 10.4 mph - N/A   Overcast
7:53 PM 69.1 °F 60.1 °F 73% 30.10 in 10.0 mi SE 9.2 mph - N/A   Overcast
8:53 PM 66.9 °F 57.9 °F 73% 30.09 in 10.0 mi SSE 9.2 mph - N/A   Mostly Cloudy
9:27 PM 66.0 °F 59.0 °F 78% 30.10 in 10.0 mi SSE 5.8 mph - N/A   Mostly Cloudy
9:53 PM 66.0 °F 59.0 °F 78% 30.10 in 10.0 mi South 5.8 mph - N/A   Mostly Cloudy
10:53 PM 66.0 °F 60.1 °F 81% 30.11 in 10.0 mi South 4.6 mph - N/A   Overcast
11:53 PM 64.9 °F 61.0 °F 87% 30.09 in 10.0 mi South 5.8 mph - N/A   Overcast